{"data":{"norad_id":58438,"epoch":"2026-05-24T20:42:38.647584Z","epoch_age_seconds":83331,"freshness":"FRESH","line1":"1 58438U 23183B   26144.86294731  .00017150  00000+0  63112-3 0  9991","line2":"2 58438  42.9991 331.4719 0001454 270.9160  89.1525 15.27588452138381","mean_motion":15.27588452,"eccentricity":0.0001454,"inclination_deg":42.9991,"raan_deg":331.4719,"arg_perigee_deg":270.916,"mean_anomaly_deg":89.1525,"bstar":0.00063112,"rev_number":13838,"period_min":94.266227144796,"perigee_km":482.0261750492,"apogee_km":484.0214006063,"semimajor_km":6861.1607878278,"source":"CELESTRAK","updated_at":"2026-05-25T13:38:18.621854Z"}}